sat.trackr.live / text

‹ back to catalog

STARLINK-32703

NORAD 62996 · 2025-031R

PAYLOAD ACTIVE UNKNOWN

§ Identity

Operator
Country
US
Launch date
2025-02-11
Launch site
AFETR
Launch vehicle
Mass (kg)
RCS (m²)

Purposes: comms

External: N2YO · Heavens-Above · Gunter

§ Orbital elements

Epoch: 2026-09-21T00:18:09.548064Z

Period
94.27 min
Inclination
43.0007°
Eccentricity
0.0001574
Mean motion
15.27574358 rev/d
Perigee alt
482.0 km
Apogee alt
484.1 km
Semi-major
6,861.2 km
B*
5.7046e-4
RAAN
120.5744°
Arg perigee
270.9561°
Mean anomaly
89.1111°
Rev number
9,096

§ Raw data

STARLINK-327031 62996U 25031R   26264.01261051  .00015466  00000+0  57046-3 0  99952 62996  43.0007 120.5744 0001574 270.9561  89.1111 15.27574358 90960

JSON: /api/v1/satellites/62996 · /tle

For live sub-satellite position, see the globe view (requires WebGL).

§ Visibility from observer

Set your observer location to see the next 7 days of passes ≥ 10°. The values pass through the URL so the page stays shareable.

No JS? Fill the form by hand. The geolocation button needs JavaScript.